[[{"header":{"parameterUnit":"m.s-1","parameterCategory":1,"la1":30.2991,"la2":30.254,"lo1":-89.0895,"lo2":-89.0444,"dy":0.0017,"dx":0.0017,"nx":28,"ny":28,"refTime":"2025-03-27T03:00:00:Z","depth":0,"parameterNumber":2,"parameterNumberName":"U-component_of_WINDS"},"data":[0,0,0,0,0,0,0,0,0,0,0,0,0,0,0,0,0,0,0,0,0,0,0,0,0,0,0,0,0,0,0,0,0,0,0,0,0,0,0,0,0,0,0,0,0,0,0,0,0,0,0,0,0,0,0,0,0,0,-0.482,-0.482,0,-0.4799,-0.4799,-0.4799,-0.4777,-0.4776,-0.4776,-0.4776,-0.4755,-0.4755,-0.4755,0,0,0,0,0,0,0,0,0,0,0,0,0,-0.4841,-0.4841,-0.482,-0.482,-0.482,-0.4799,-0.4799,-0.4799,-0.4777,-0.4776,-0.4776,-0.4775,-0.4755,-0.4755,-0.4755,0,0,0,0,0,0,0,0,0,0,0,0,0,-0.4828,-0.4841,-0.482,-0.4806,-0.4805,-0.4799,-0.4799,-0.4799,-0.4777,-0.4776,-0.4776,-0.4775,-0.4756,-0.4755,-0.4755,-0.4762,0,0,-0.4754,-0.4754,0,0,0,0,0,0,0,0,-0.4828,-0.4827,-0.4808,-0.4807,-0.4805,-0.479,-0.4799,-0.4787,-0.4777,-0.4787,-0.4776,-0.4775,-0.4767,-0.4766,-0.4763,-0.4761,-0.476,-0.4754,-0.4753,-0.4753,-0.4753,0,0,0,0,0,0,0,-0.4829,-0.4828,-0.4812,-0.4808,-0.4806,-0.4801,-0.4799,-0.4797,-0.478,-0.4786,-0.4785,-0.4782,-0.4766,-0.4764,-0.4763,-0.476,-0.4754,-0.4753,-0.4753,-0.4753,-0.4764,-0.4764,0,0,0,0,0,0,-0.4832,-0.4829,-0.4813,-0.4811,-0.4816,-0.4801,-0.4798,-0.4795,-0.478,-0.4777,-0.4783,-0.4782,-0.4764,-0.4763,-0.4762,-0.477,-0.4753,-0.4753,-0.4753,-0.4763,-0.4764,-0.4764,0,0,0,0,0,0,-0.4833,-0.4831,-0.4813,-0.4819,-0.4817,-0.4801,-0.4798,-0.4795,-0.4792,-0.4778,-0.4775,-0.4783,-0.4764,-0.4762,-0.4762,-0.4769,-0.4753,-0.4753,-0.4762,-0.4763,-0.4764,-0.4785,0,0,0,0,0,0,-0.4834,-0.4831,-0.4834,-0.482,-0.4817,-0.4814,-0.4799,-0.4795,-0.4792,-0.479,-0.4777,-0.4774,-0.4763,-0.4763,-0.4762,-0.4768,-0.4752,-0.4762,-0.4763,-0.4764,-0.4784,-0.4787,-0.4789,0,0,0,0,0,-0.4834,-0.4841,-0.4834,-0.4832,-0.4819,-0.4814,-0.4813,-0.48,-0.4792,-0.4795,-0.4785,-0.4775,-0.4768,-0.4763,-0.4762,-0.4768,-0.4761,-0.4763,-0.4764,-0.4783,-0.4786,-0.4789,0,0,0,0,0,0,-0.4856,-0.4839,-0.4831,-0.4833,-0.4825,-0.4811,-0.4813,-0.4804,-0.4798,-0.4797,-0.4781,-0.4778,-0.478,-0.4774,-0.4769,-0.4774,-0.4763,-0.4764,-0.4778,-0.4781,-0.4784,-0.4785,-0.4752,0,0,0,0,0,-0.4862,-0.4859,-0.4844,-0.4847,-0.4843,-0.4829,-0.4826,-0.4817,-0.4809,-0.4806,-0.4796,-0.4789,-0.4785,-0.4783,-0.4778,-0.4783,-0.478,-0.4786,-0.4789,-0.4791,-0.4792,-0.4794,-0.4797,-0.4768,-0.4768,-0.4768,0,0,-0.4872,-0.4862,-0.4861,-0.4851,-0.4844,-0.4842,-0.4826,-0.4825,-0.4823,-0.4805,-0.4805,-0.4798,-0.4788,-0.4791,-0.4791,-0.4785,-0.4799,-0.4792,-0.4794,-0.4794,-0.4795,-0.4798,-0.4801,-0.4769,-0.4768,-0.4768,0,0,-0.489,-0.4882,-0.4884,-0.4877,-0.4867,-0.4857,-0.4858,-0.4844,-0.4839,-0.4838,-0.4825,-0.4823,-0.4816,-0.481,-0.4806,-0.4822,-0.4812,-0.4821,-0.4835,-0.4837,-0.4839,-0.4841,-0.4847,-0.4849,-0.4822,-0.4822,-0.4822,0,-0.4904,-0.49,-0.4886,-0.4885,-0.4881,-0.4865,-0.4867,-0.4861,-0.485,-0.4848,-0.4841,-0.4833,-0.4826,-0.4826,-0.483,-0.4828,-0.4828,-0.4823,-0.484,-0.4842,-0.4843,-0.4849,-0.4851,-0.4824,-0.4823,-0.4823,-0.4823,0,-0.4919,-0.4916,-0.4919,-0.4908,-0.4904,-0.4905,-0.4891,-0.4889,-0.4881,-0.4872,-0.4871,-0.4862,-0.4855,-0.4855,-0.4846,-0.4855,-0.4851,-0.4843,-0.4831,-0.4847,-0.4852,-0.4854,-0.4825,-0.4825,-0.4825,-0.4824,0,0,-0.495,-0.4931,-0.4933,-0.4928,-0.4915,-0.4913,-0.4913,-0.4906,-0.4905,-0.4898,-0.4898,-0.4893,-0.4885,-0.488,-0.4871,-0.4873,-0.4886,-0.4864,-0.4863,-0.4868,-0.4895,-0.4902,-0.4904,-0.488,-0.488,-0.488,-0.4896,0,-0.4966,-0.4964,-0.4952,-0.4954,-0.4952,-0.4936,-0.4936,-0.4929,-0.4921,-0.4918,-0.4909,-0.4906,-0.4895,-0.4892,-0.4894,-0.4884,-0.4891,-0.4883,-0.488,-0.488,-0.4882,-0.4907,-0.4914,-0.4929,-0.4898,-0.4898,-0.4898,0,-0.4984,-0.4977,-0.498,-0.4967,-0.4965,-0.4966,-0.4959,-0.4956,-0.4947,-0.4941,-0.4937,-0.4926,-0.4925,-0.4915,-0.4914,-0.4909,-0.4907,-0.4902,-0.4902,-0.4901,-0.489,-0.4906,-0.4933,-0.4935,-0.4901,-0.4901,-0.49,0,-0.5006,-0.4999,-0.4999,-0.4995,-0.498,-0.4981,-0.4975,-0.4966,-0.4962,-0.4957,-0.4954,-0.4949,-0.4945,-0.4941,-0.493,-0.4923,-0.493,-0.4919,-0.4925,-0.4926,-0.4928,-0.4928,-0.4954,-0.4926,-0.4926,-0.4926,-0.4926,0,-0.5025,-0.5027,-0.5009,-0.5009,-0.5011,-0.4996,-0.4999,-0.4991,-0.4983,-0.4982,-0.4968,-0.4967,-0.4952,-0.4949,-0.494,-0.4941,-0.494,-0.4935,-0.4933,-0.4936,-0.4937,-0.4935,-0.4933,-0.4927,-0.4927,-0.4927,-0.4927,0,-0.5051,-0.5038,-0.5038,-0.5024,-0.502,-0.5022,-0.5011,-0.501,-0.5002,-0.5,-0.4999,-0.4985,-0.4982,-0.4969,-0.4963,-0.4957,-0.496,-0.4956,-0.4963,-0.4962,-0.4969,-0.4969,-0.4995,-0.4998,-0.4968,-0.4969,-0.4969,0,-0.5063,-0.5065,-0.5051,-0.5049,-0.5043,-0.504,-0.5037,-0.5023,-0.502,-0.5011,-0.5012,-0.5007,-0.5002,-0.4997,-0.4987,-0.4982,-0.4977,-0.4986,-0.4976,-0.498,-0.4977,-0.4977,-0.4977,-0.4989,-0.4989,-0.4989,-0.499,0,-0.5088,-0.5081,-0.5077,-0.5071,-0.5067,-0.5061,-0.5055,-0.5054,-0.5039,-0.5036,-0.5032,-0.5029,-0.5022,-0.5018,-0.5011,-0.5005,-0.4995,-0.4993,-0.4994,-0.4998,-0.5002,-0.5,-0.4969,-0.4993,-0.4992,-0.4992,-0.4992,-0.4992,-0.5107,-0.5107,-0.5098,-0.5093,-0.5087,-0.5081,-0.508,-0.5071,-0.5068,-0.5061,-0.5053,-0.505,-0.5042,-0.5032,-0.5026,-0.5024,-0.5018,-0.502,-0.5021,-0.5021,-0.5023,-0.5003,-0.5023,-0.5023,-0.5023,-0.5022,-0.5022,0,-0.513,-0.5123,-0.5119,-0.5111,-0.5107,-0.5098,-0.5091,-0.5089,-0.5086,-0.5079,-0.5074,-0.507,-0.5066,-0.5055,-0.505,-0.505,-0.5045,-0.5049,-0.5049,-0.5047,-0.5028,-0.5028,-0.5053,-0.5053,-0.5053,-0.5053,-0.5053,-0.5053,-0.5142,-0.5142,-0.5135,-0.5131,-0.5125,-0.5121,-0.5118,-0.5113,-0.5107,-0.5102,-0.5099,-0.5092,-0.5083,-0.5077,-0.5073,-0.507,-0.5068,-0.5074,-0.5069,-0.5052,-0.5049,-0.5046,-0.5045,-0.5074,-0.5074,-0.5088,-0.5089,-0.5089]},{"header":{"parameterUnit":"m.s-1","parameterCategory":1,"la1":30.2991,"la2":30.254,"lo1":-89.0895,"lo2":-89.0444,"dy":0.0017,"dx":0.0017,"nx":28,"ny":28,"refTime":"2025-03-27T03:00:00:Z","depth":0,"parameterNumber":3,"parameterNumberName":"V-component_of_WINDS"},"data":[0,0,0,0,0,0,0,0,0,0,0,0,0,0,0,0,0,0,0,0,0,0,0,0,0,0,0,0,0,0,0,0,0,0,0,0,0,0,0,0,0,0,0,0,0,0,0,0,0,0,0,0,0,0,0,0,0,0,0.0621,0.0621,0,0.0573,0.0572,0.0571,0.0534,0.0534,0.0533,0.0533,0.0483,0.0482,0.0481,0,0,0,0,0,0,0,0,0,0,0,0,0,0.0682,0.0681,0.0621,0.0621,0.062,0.0573,0.0572,0.0571,0.0534,0.0533,0.0533,0.0533,0.0483,0.0482,0.0481,0,0,0,0,0,0,0,0,0,0,0,0,0,0.0647,0.0681,0.0621,0.0596,0.0593,0.0573,0.0572,0.0571,0.0534,0.0533,0.0533,0.0532,0.0484,0.0482,0.0481,0.0482,0,0,0.0476,0.0475,0,0,0,0,0,0,0,0,0.0649,0.0645,0.06,0.0597,0.0594,0.0559,0.0575,0.0541,0.0534,0.0556,0.0533,0.0532,0.0509,0.0505,0.0497,0.048,0.0478,0.0476,0.0475,0.0474,0.0474,0,0,0,0,0,0,0,0.0652,0.0647,0.0602,0.06,0.0596,0.0587,0.0581,0.0569,0.0536,0.0554,0.0552,0.0546,0.0507,0.0499,0.0496,0.0477,0.0476,0.0475,0.0474,0.0473,0.0459,0.0459,0,0,0,0,0,0,0.0658,0.0649,0.0604,0.0601,0.0621,0.0586,0.058,0.0571,0.0536,0.053,0.0547,0.0545,0.0501,0.0497,0.0494,0.0493,0.0474,0.0473,0.0472,0.0458,0.0459,0.0459,0,0,0,0,0,0,0.0659,0.0654,0.0606,0.0624,0.0617,0.0586,0.0576,0.057,0.0562,0.053,0.0524,0.0544,0.0501,0.0496,0.0485,0.0491,0.0472,0.0471,0.0458,0.0459,0.0459,0.0493,0,0,0,0,0,0,0.0661,0.0655,0.0655,0.0624,0.0616,0.0598,0.0576,0.0569,0.0559,0.0556,0.0526,0.0521,0.05,0.0488,0.0484,0.0489,0.047,0.0457,0.0458,0.0459,0.0491,0.0494,0.0497,0,0,0,0,0,0.0664,0.0666,0.0655,0.065,0.0616,0.0599,0.0594,0.057,0.056,0.056,0.054,0.0522,0.0491,0.0487,0.0482,0.0487,0.0457,0.0458,0.0459,0.0489,0.0494,0.0497,0,0,0,0,0,0,0.0699,0.0662,0.0649,0.0642,0.0624,0.0592,0.0591,0.0575,0.0559,0.0557,0.0527,0.0521,0.0514,0.0499,0.0495,0.0486,0.0472,0.0472,0.0496,0.05,0.0503,0.0507,0.0469,0,0,0,0,0,0.0706,0.0695,0.0663,0.066,0.0651,0.0623,0.0615,0.0598,0.0577,0.0569,0.0549,0.053,0.0516,0.0507,0.0492,0.0489,0.0482,0.0489,0.0493,0.0495,0.0496,0.0493,0.0496,0.0463,0.0463,0.0463,0,0,0.072,0.0698,0.0693,0.0666,0.065,0.0639,0.0617,0.0606,0.0598,0.0568,0.0557,0.0541,0.0518,0.0511,0.0507,0.0498,0.0504,0.0497,0.0499,0.0498,0.0495,0.0498,0.0501,0.0464,0.0464,0.0464,0,0,0.074,0.0723,0.0718,0.0702,0.0678,0.0659,0.0659,0.063,0.0618,0.0606,0.0583,0.0573,0.055,0.0535,0.0524,0.0539,0.0522,0.0535,0.0552,0.055,0.0552,0.0554,0.056,0.0562,0.0536,0.0536,0.0536,0,0.0761,0.0744,0.0718,0.0709,0.0698,0.067,0.0666,0.0652,0.0624,0.0617,0.0608,0.0578,0.0561,0.055,0.0554,0.0546,0.0544,0.0538,0.0554,0.0556,0.0557,0.0563,0.0565,0.0537,0.0537,0.0537,0.0537,0,0.077,0.0759,0.0758,0.0732,0.0721,0.0715,0.0688,0.068,0.0664,0.0646,0.0635,0.0613,0.0594,0.059,0.0575,0.0577,0.0573,0.0559,0.0544,0.0563,0.0567,0.0569,0.054,0.0539,0.0539,0.0538,0,0,0.0811,0.0771,0.0771,0.0759,0.0731,0.0722,0.0714,0.0695,0.0689,0.0671,0.0664,0.0645,0.0632,0.062,0.0602,0.06,0.0614,0.0587,0.0586,0.0593,0.0616,0.0626,0.0629,0.0603,0.0603,0.0603,0.0618,0,0.0827,0.0811,0.0788,0.078,0.0769,0.0743,0.0736,0.0718,0.0702,0.069,0.0672,0.0659,0.0643,0.0636,0.0633,0.0613,0.0618,0.0612,0.0596,0.0596,0.0603,0.0631,0.0642,0.0657,0.0619,0.062,0.062,0,0.0843,0.0827,0.0818,0.0791,0.0785,0.078,0.0761,0.075,0.0729,0.0717,0.0704,0.0685,0.0676,0.0662,0.0649,0.0645,0.0637,0.0626,0.0626,0.0624,0.0609,0.063,0.0661,0.0664,0.0622,0.0622,0.0622,0,0.0874,0.085,0.0841,0.0832,0.08,0.0796,0.0783,0.0761,0.0752,0.0735,0.0729,0.0712,0.0702,0.0689,0.0666,0.0658,0.0656,0.064,0.0646,0.0646,0.0646,0.0647,0.0677,0.0641,0.0641,0.0641,0.0641,0,0.0894,0.089,0.0855,0.085,0.0844,0.0818,0.0813,0.0797,0.0778,0.077,0.0746,0.0738,0.0708,0.0697,0.0679,0.0671,0.0667,0.0658,0.0653,0.066,0.0661,0.0654,0.0653,0.0642,0.0642,0.0642,0.0641,0,0.0927,0.0904,0.0893,0.0864,0.0856,0.0853,0.0828,0.0822,0.0805,0.0794,0.079,0.0762,0.0748,0.0724,0.0703,0.0691,0.0687,0.0678,0.0694,0.0691,0.0698,0.0698,0.0725,0.0728,0.0691,0.0691,0.0691,0,0.0942,0.0938,0.0908,0.0901,0.0888,0.0877,0.0867,0.0841,0.0831,0.0808,0.0805,0.0789,0.0775,0.0754,0.0732,0.0715,0.0707,0.0718,0.0704,0.0711,0.0707,0.0708,0.0707,0.0721,0.0721,0.0722,0.0722,0,0.097,0.0959,0.0945,0.0928,0.0917,0.0902,0.0886,0.0881,0.0852,0.0842,0.0828,0.0817,0.0796,0.078,0.0761,0.0747,0.073,0.0726,0.0727,0.0734,0.0743,0.0739,0.0702,0.0726,0.0725,0.0725,0.0725,0.0725,0.0994,0.099,0.0968,0.0954,0.094,0.0925,0.0918,0.09,0.0887,0.0868,0.0853,0.084,0.082,0.0792,0.0779,0.0769,0.0761,0.0761,0.0762,0.0762,0.0765,0.0745,0.0765,0.0765,0.0765,0.0765,0.0765,0,0.1021,0.1006,0.0994,0.0972,0.0961,0.0946,0.0928,0.092,0.0908,0.0891,0.0877,0.0861,0.0846,0.0823,0.0806,0.0802,0.0794,0.0799,0.0799,0.0796,0.0773,0.0774,0.0806,0.0806,0.0806,0.0806,0.0806,0.0806,0.1034,0.1026,0.1012,0.0996,0.0981,0.0968,0.0959,0.0946,0.0932,0.0914,0.0902,0.0887,0.0867,0.0849,0.0835,0.0829,0.0824,0.0831,0.0823,0.0802,0.0798,0.0794,0.0795,0.083,0.0831,0.0846,0.0847,0.0847]}]]